Weather History for Tishomingo Cnty AP, Belmont,, MS

Change the Weather History Date:

Wednesday, February 5, 2014

  Actual Average (KTUP) Record (KTUP)
Temperature  
Mean Temperature 34 °F 44 °F  
Max Temperature 41 °F 54 °F 76 °F (2008)
Min Temperature 27 °F 33 °F 7 °F (1996)
Degree Days  
Heating Degree Days 31 21  
Month to date heating degree days 109  
Since 1 July heating degree days 2005  
Cooling Degree Days 0 0  
Month to date cooling degree days 0  
Year to date cooling degree days 1  
Moisture  
Dew Point 28 °F    
Average Humidity 83    
Maximum Humidity 97    
Minimum Humidity 64    
Precipitation  
Precipitation 0.00 in 0.17 in 3.38 in (2004)
Month to date precipitation 0.81  
Year to date precipitation 5.29  
Snow  
Snow 0.00 in 0.00 in 1.00 in (1983)
Month to date snowfall 0.1  
Since 1 July snowfall 1.3  
Snow Depth -    
Sea Level Pressure  
Sea Level Pressure 30.21 in    
Wind  
Wind Speed 8 mph (NW)    
Max Wind Speed 14 mph    
Max Gust Speed 22 mph    
Visibility 10 miles    
Events      
T = Trace of Precipitation, MM = Missing Value Source: NWS Daily Summary

Daily Weather History Graph

Daily Weather History Graph

Search for Another Location

Airport:

Trip Planner

Search our weather history database for the weather conditions in past years. The results will help you decide how hot, cold, wet, or windy it might be!

Date:

Astronomy

Feb. 05, 2014 Rise Set
Actual Time 6:47 AM CST 5:26 PM CST
Civil Twilight 6:21 AM CST 5:52 PM CST
Nautical Twilight 5:51 AM CST 6:22 PM CST
Astronomical Twilight 5:21 AM CST 6:52 PM CST
Moon 10:20 AM CST (2/5) No Moon Set
Length of Visible Light 11h 31m
Length of Day
10h 39m
Waxing Crescent, 39% of the Moon is Illuminated
Feb 5
Waxing Crescent
Feb 6
First Quarter
Feb 14
Full
Feb 22
Last Quarter
Mar 1
New

Hourly Weather History & Observations

Time (CST) Temp. Windchill Dew Point Humidity Pressure Visibility Wind Dir Wind Speed Gust Speed Precip Events Conditions
12:15 AM 41.0 °F 37.1 °F 40.1 °F 97% 29.89 in 10.0 mi West 5.8 mph - N/A   Unknown
12:35 AM 40.6 °F 35.4 °F 39.6 °F 96% 29.90 in 10.0 mi West 8.1 mph - N/A   Unknown
12:55 AM 40.1 °F 33.6 °F 38.8 °F 95% 29.91 in 10.0 mi West 10.4 mph 17.3 mph N/A   Unknown
1:15 AM 39.2 °F 33.6 °F 37.6 °F 94% 29.92 in 10.0 mi West 8.1 mph - N/A   Unknown
1:35 AM 38.3 °F 34.8 °F 36.9 °F 95% 29.93 in 10.0 mi West 4.6 mph - N/A   Unknown
1:55 AM 38.3 °F 33.2 °F 36.9 °F 95% 29.93 in 10.0 mi West 6.9 mph - N/A   Unknown
2:15 AM 37.6 °F 33.1 °F 36.5 °F 96% 29.94 in 10.0 mi West 5.8 mph - N/A   Unknown
2:35 AM 37.4 °F 30.8 °F 36.5 °F 97% 29.95 in 10.0 mi West 9.2 mph - N/A   Unknown
2:55 AM 36.9 °F 29.1 °F 34.9 °F 93% 29.96 in 10.0 mi West 11.5 mph 18.4 mph N/A   Unknown
3:15 AM 36.3 °F 30.8 °F 34.9 °F 95% 29.98 in 10.0 mi West 6.9 mph 17.3 mph N/A   Unknown
3:35 AM 35.2 °F 28.8 °F 34.2 °F 96% 29.99 in 10.0 mi West 8.1 mph - N/A   Unknown
3:55 AM 34.5 °F 27.3 °F 33.3 °F 95% 30.01 in 10.0 mi West 9.2 mph - N/A   Unknown
4:15 AM 33.8 °F 29.6 °F 32.4 °F 94% 30.03 in 10.0 mi West 4.6 mph - N/A   Unknown
4:35 AM 33.3 °F 28.9 °F 32.0 °F 95% 30.03 in 10.0 mi West 4.6 mph - N/A   Unknown
4:55 AM 33.1 °F 26.9 °F 32.0 °F 96% 30.05 in 10.0 mi West 6.9 mph 17.3 mph N/A   Unknown
5:15 AM 32.9 °F 27.5 °F 32.0 °F 96% 30.06 in 10.0 mi West 5.8 mph - N/A   Unknown
5:35 AM 32.9 °F 25.9 °F 32.0 °F 96% 30.08 in 10.0 mi West 8.1 mph - N/A   Unknown
5:55 AM 32.9 °F 27.5 °F 31.8 °F 96% 30.10 in 10.0 mi West 5.8 mph - N/A   Unknown
6:10 AM 32.5 °F 27.1 °F 31.8 °F 97% 30.10 in 10.0 mi West 5.8 mph - N/A   Unknown
6:35 AM 32.5 °F 27.1 °F 31.8 °F 97% 30.11 in 10.0 mi West 5.8 mph - N/A   Unknown
6:55 AM 32.9 °F 29.8 °F 31.6 °F 95% 30.12 in 10.0 mi West 3.5 mph - N/A   Unknown
7:15 AM 32.9 °F 28.5 °F 31.6 °F 95% 30.13 in 10.0 mi West 4.6 mph - N/A   Unknown
7:35 AM 32.9 °F 29.8 °F 31.8 °F 96% 30.15 in 10.0 mi WSW 3.5 mph - N/A   Unknown
7:55 AM 33.3 °F 28.9 °F 32.0 °F 95% 30.16 in 10.0 mi West 4.6 mph - N/A   Unknown
8:15 AM 33.3 °F 27.1 °F 32.0 °F 95% 30.17 in 10.0 mi WSW 6.9 mph - N/A   Unknown
8:35 AM 33.4 °F 28.1 °F 32.0 °F 94% 30.18 in 10.0 mi West 5.8 mph - N/A   Unknown
8:55 AM 33.8 °F 29.6 °F 32.0 °F 93% 30.19 in 10.0 mi West 4.6 mph - N/A   Unknown
9:15 AM 34.0 °F 28.0 °F 32.0 °F 92% 30.19 in 10.0 mi West 6.9 mph - N/A   Unknown
9:35 AM 34.2 °F 28.2 °F 32.0 °F 92% 30.19 in 10.0 mi West 6.9 mph - N/A   Unknown
9:55 AM 34.3 °F 28.4 °F 32.0 °F 91% 30.21 in 10.0 mi West 6.9 mph - N/A   Unknown
10:15 AM 35.2 °F 29.5 °F 32.0 °F 88% 30.21 in 10.0 mi West 6.9 mph - N/A   Unknown
10:35 AM 36.1 °F 30.6 °F 31.5 °F 83% 30.22 in 10.0 mi West 6.9 mph 16.1 mph N/A   Unknown
10:55 AM 35.2 °F 27.6 °F 30.4 °F 82% 30.22 in 10.0 mi WNW 10.4 mph 19.6 mph N/A   Unknown
11:15 AM 35.2 °F 28.1 °F 30.2 °F 82% 30.23 in 10.0 mi WNW 9.2 mph 16.1 mph N/A   Unknown
11:35 AM 35.2 °F 28.1 °F 30.4 °F 82% 30.23 in 10.0 mi NW 9.2 mph - N/A   Unknown
11:55 AM 36.7 °F 28.4 °F 30.4 °F 78% 30.22 in 10.0 mi NW 12.7 mph 20.7 mph N/A   Unknown
12:15 PM 36.7 °F 29.9 °F 28.4 °F 72% 30.21 in 10.0 mi NW 9.2 mph 20.7 mph N/A   Unknown
12:35 PM 38.3 °F 30.9 °F 27.0 °F 64% 30.21 in 10.0 mi NW 11.5 mph 18.4 mph N/A   Unknown
12:55 PM 34.3 °F 25.9 °F 28.2 °F 78% 30.22 in 10.0 mi NNW 11.5 mph 17.3 mph N/A   Unknown
1:15 PM 32.9 °F 23.7 °F 27.3 °F 80% 30.23 in 10.0 mi NW 12.7 mph 21.9 mph N/A   Unknown
1:35 PM 34.5 °F 26.7 °F 27.7 °F 76% 30.23 in 10.0 mi NW 10.4 mph 16.1 mph N/A   Unknown
1:55 PM 33.1 °F 25.5 °F 27.1 °F 79% 30.24 in 10.0 mi NW 9.2 mph 16.1 mph N/A   Unknown
2:15 PM 32.7 °F 26.4 °F 26.2 °F 77% 30.26 in 10.0 mi NW 6.9 mph - N/A   Unknown
2:35 PM 32.0 °F 24.2 °F 24.6 °F 74% 30.26 in 10.0 mi NW 9.2 mph - N/A   Unknown
2:55 PM 31.8 °F 23.9 °F 24.1 °F 73% 30.27 in 10.0 mi NW 9.2 mph 16.1 mph N/A   Unknown
3:15 PM 31.1 °F 23.1 °F 23.2 °F 72% 30.29 in 10.0 mi NNW 9.2 mph 17.3 mph N/A   Unknown
3:35 PM 30.4 °F 21.5 °F 22.6 °F 73% 30.29 in 10.0 mi NNW 10.4 mph - N/A   Unknown
3:50 PM 30.0 °F 23.2 °F 22.5 °F 73% 30.31 in 10.0 mi NW 6.9 mph - N/A   Unknown
4:15 PM 29.8 °F 20.9 °F 21.4 °F 71% 30.32 in 10.0 mi NNW 10.4 mph - N/A   Unknown
4:35 PM 29.7 °F 22.8 °F 21.0 °F 70% 30.34 in 10.0 mi NNW 6.9 mph - N/A   Unknown
4:55 PM 29.7 °F 21.3 °F 21.0 °F 70% 30.34 in 10.0 mi NNW 9.2 mph - N/A   Unknown
5:15 PM 29.3 °F 21.5 °F 21.0 °F 71% 30.34 in 10.0 mi NNW 8.1 mph - N/A   Unknown
5:35 PM 29.3 °F 21.5 °F 21.0 °F 71% 30.36 in 10.0 mi NNW 8.1 mph - N/A   Unknown
5:55 PM 29.1 °F 21.3 °F 21.2 °F 72% 30.37 in 10.0 mi North 8.1 mph - N/A   Unknown
6:15 PM 28.8 °F 20.9 °F 20.3 °F 71% 30.37 in 10.0 mi North 8.1 mph - N/A   Unknown
6:35 PM 28.4 °F 19.1 °F 20.5 °F 72% 30.38 in 10.0 mi North 10.4 mph 17.3 mph N/A   Unknown
6:55 PM 28.4 °F 19.7 °F 21.0 °F 74% 30.38 in 10.0 mi North 9.2 mph - N/A   Unknown
7:15 PM 28.4 °F 22.2 °F 21.0 °F 74% 30.38 in 10.0 mi North 5.8 mph - N/A   Unknown
7:35 PM 28.2 °F 18.3 °F 20.5 °F 73% 30.39 in 10.0 mi North 11.5 mph 19.6 mph N/A   Unknown
7:55 PM 27.9 °F 17.8 °F 20.1 °F 73% 30.39 in 10.0 mi NNW 11.5 mph 16.1 mph N/A   Unknown
8:15 PM 27.9 °F 20.6 °F 20.1 °F 73% 30.39 in 10.0 mi North 6.9 mph - N/A   Unknown
8:35 PM 27.9 °F 19.8 °F 20.1 °F 73% 30.39 in 10.0 mi North 8.1 mph 17.3 mph N/A   Unknown
8:55 PM 27.9 °F 19.1 °F 19.9 °F 72% 30.39 in 10.0 mi North 9.2 mph - N/A   Unknown
9:15 PM 27.5 °F 17.4 °F 18.9 °F 70% 30.40 in 10.0 mi North 11.5 mph 17.3 mph N/A   Unknown
9:35 PM 27.9 °F 18.4 °F 19.0 °F 69% 30.42 in 10.0 mi North 10.4 mph 16.1 mph N/A   Unknown
9:50 PM 27.9 °F 16.8 °F 19.2 °F 70% 30.41 in 10.0 mi North 13.8 mph 18.4 mph N/A   Unknown
10:15 PM 27.5 °F 21.1 °F 19.4 °F 72% 30.41 in 10.0 mi North 5.8 mph - N/A   Unknown
10:35 PM 27.5 °F 18.0 °F 19.4 °F 72% 30.42 in 10.0 mi NNW 10.4 mph - N/A   Unknown
10:55 PM 27.5 °F 19.3 °F 19.4 °F 72% 30.43 in 10.0 mi North 8.1 mph - N/A   Unknown
11:15 PM 27.5 °F 19.3 °F 19.8 °F 73% 30.42 in 10.0 mi North 8.1 mph - N/A   Unknown
11:35 PM 27.5 °F 18.6 °F 19.9 °F 73% 30.40 in 10.0 mi North 9.2 mph 17.3 mph N/A   Unknown
11:55 PM 27.5 °F 20.2 °F 20.1 °F 74% 30.40 in 10.0 mi North 6.9 mph - N/A   Unknown